Location: Peterborough
(44.3091°N, 78.3197°W)
Time: 01:46:53
(UTC-04:00)

SR - Pass Details

Date: 22 March 2023
Orbit: 581 x 867 km, 66.7° (Epoch: 02 June)

Event Time Altitude Azimuth Distance (km) Brightness Sun altitude
Rises 11:47:32 0° 336° (NNW) 2,809 ? 41.8°
Reaches altitude 10° 11:50:05 10° 350° (N) 1,912 ? 42.0°
Maximum altitude 11:53:38 25° 47° (NE) 1,213 ? 42.4°
Drops below altitude 10° 11:57:17 10° 104° (ESE) 1,968 ? 42.7°
Sets 11:59:56 0° 117° (ESE) 2,909 ? 42.9°
